SCP
-0 -0 -0 -0 -0 -0 -0 -0 -0 -0 -0 -0 -0 -0 -0 -0 -0 -0 -0 -0 -0 0 0 0 0 0 0 0 -0 -0 -0 -0 -0 -0 -0 -0 -0 0 0 -0 -0 0 -0
-0 -0 -0 -0 -0 -0 -0 -0 -0 -0 -0 -0 -0 -0 -0 -0 -0 -0 -0 -0 -0 -0 0 0 0 0 0 0 0 -0 -0 -0 -0 -0 -0 -0 -0 0 0 -0 0 0 -0
-0 -0 -0 -0 -0 -0 -0 -0 -0 -0 -0 0 0 -0 -0 -0 -0 -0 -0 0 0 0 -0 0 0 0 0 0 0 -0 -0 0 -0 -0 -0 -0 0 -0 -0 -0 -0 -0 -0
-0 -0 -0 -0 -0 -0 0 -0 -0 -0 0 0 -0 0 0 0 -0 -0 -0 -0 -0 -0 -0 -0 -0 0 0 0 -0 -0 -0 0 -0 -0 -0 -0 0 -0 -0 -0 -0 -0 -0
-0 -0 -0 -0 -0 -0 0 -0 -0 -0 0 0 -0 -0 -0 0 0 -0 -0 0 -0 -0 -0 -0 -0 -0 -0 0 -0 -0 0 0 0 0 0 -0 0 -0 -0 -0 -0 -0 0
-1 -0 -0 -0 -0 0 -0 -0 -0 -0 -0 -0 -0 -0 -0 0 -0 0 0 -0 -0 -0 -0 -0 -0 -0 -0 -0 0 0 -0 0 -0 -0 -0 -0 -0 -0 -0 -0 -0 -0 -0
-0 -0 -0 -1 -1 -0 -0 -0 -0 -0 -0 -0 0 -0 0 0 -0 0 0 -0 -0 -0 -0 -0 -0 -0 -0 -0 0 0 0 0 0 0 0 -0 -0 -0 -0 -0 -0 -0 -0
-0 -0 -0 -0 -0 -0 -0 -0 -0 -0 -0 -0 0 -0 -0 0 0 -0 -0 -0 -0 -0 -0 0 -0 -0 -0 -0 0 0 0 0 0 0 -0 -0 -0 -0 -0 -0 -0 -0 -0
-0 -0 0 0 0 0 0 0 -0 -0 -0 -0 -0 0 -0 0 -0 -0 -0 0 -0 -0 0 -0 0 -0 -0 -0 -0 0 0 0 0 0 -0 -0 -0 -0 -0 -0 -0 -0 -0
-0 -0 0 0 1 1 1 0 0 0 -0 0 0 0 0 0 0 -0 0 0 0 -0 0 -0 -0 -0 -0 -0 -0 0 0 0 0 0 0 0 -0 -0 -0 -0 -0 -0 -0
-0 -0 -0 0 0 0 0 0 0 0 0 0 0 0 0 0 0 -0 0 0 0 0 -0 -0 -0 -0 -0 0 -0 -0 0 0 0 0 0 -0 -0 -0 -0 -0 -0 -0 -0
0 0 0 0 0 0 1 1 1 0 1 1 0 0 0 0 0 -0 0 0 0 0 0 0 0 -0 -0 0 0 -0 0 0 0 0 0 -0 -0 -0 -0 -0 -0 -0 -0
0 0 0 -0 0 0 0 0 0 0 0 0 0 0 0 0 1 0 0 1 0 0 0 0 0 0 0 0 0 0 0 0 0 0 0 -0 -0 -0 -0 -0 -0 -0 -0
0 0 0 -0 0 -0 0 0 0 0 0 0 0 0 0 1 1 0 0 0 0 0 0 0 0 0 0 0 0 0 0 0 0 0 0 -0 0 0 -0 -0 -0 -0 -0
0 0 0 0 0 -0 -0 0 0 0 0 0 0 0 0 0 0 0 0 0 0 1 0 0 0 0 0 0 0 0 0 0 0 0 0 0 0 0 0 -0 -0 -0 0
0 1 1 0 0 -0 -0 0 0 0 0 0 0 0 0 0 0 0 0 0 0 0 0 0 0 0 0 0 0 0 0 0 0 0 0 0 0 0 0 -0 -0 -0 -0
1 1 1 1 0 -0 -0 -0 -0 -0 0 0 0 0 0 0 0 0 0 0 0 0 0 0 0 0 0 0 0 0 0 0 -0 0 0 0 0 0 0 0 0 0 0
0 0 1 1 0 0 0 -0 0 0 0 0 0 0 0 0 0 0 0 0 0 0 0 0 0 1 0 0 0 0 0 0 0 0 0 0 0 0 0 -0 0 0 0
0 0 1 1 1 1 1 1 1 1 1 0 0 0 0 0 0 0 0 0 0 0 0 1 0 0 0 0 0 0 0 0 0 0 0 0 0 0 0 0 -0 -0 -0
0 0 1 1 1 1 1 1 1 0 0 0 0 0 0 1 1 0 0 0 0 0 0 0 0 0 0 0 0 0 0 0 0 0 0 0 0 0 0 0 0 0 0
1 1 2 3 2 1 2 1 1 1 0 0 0 1 0 0 0 0 0 0 0 0 0 0 0 0 0 0 0 0 0 0 0 0 0 0 0 0 0 0 0 0 0
-1 0 1 2 2 1 1 1 1 1 1 0 0 0 0 0 0 0 0 0 0 0 0 0 0 0 0 0 0 0 0 0 0 0 0 0 0 0 0 0 0 0 0
0 1 1 1 1 1 1 1 1 0 0 0 0 0 0 0 0 0 0 0 0 0 0 0 0 0 0 0 0 0 0 0 0 0 0 0 0 0 0 0 0 0 0
1 1 1 1 1 1 1 1 1 0 0 0 0 0 0 0 0 0 0 0 0 0 0 0 0 0 0 0 0 0 0 0 0 0 0 0 0 0 0 0 0 0 0
0 1 0 1 1 1 1 1 0 0 0 0 0 0 0 0 -0 0 0 0 0 0 0 0 0 0 0 0 0 0 0 0 0 0 0 0 0 0 0 0 0 0 0
1 0 0 1 1 0 0 0 0 0 0 0 0 0 0 0 -0 0 0 0 0 0 0 0 0 0 0 0 0 0 0 0 0 0 0 0 0 0 0 0 0 0 0
Wind_Speed_500mb
38 39 42 43 42 40 37 36 35 33 30 30 29 28 28 28 26 26 26 23 22 24 23 21 22 19 14 14 13 14 15 18 25 28 29 30 36 34 33 28 29 31 34
40 40 42 44 44 39 35 32 32 30 29 27 25 25 26 23 23 24 24 22 22 23 22 21 21 22 16 13 14 20 20 28 31 32 30 34 34 36 33 25 25 31 34
41 36 38 41 43 38 33 29 28 28 26 26 23 20 20 21 20 20 22 20 19 18 19 19 17 17 15 17 20 22 27 32 33 29 27 29 30 26 28 20 22 30 34
34 34 38 41 39 36 30 26 24 25 24 22 20 17 16 17 18 18 17 16 16 16 16 15 14 10 13 15 22 25 31 33 33 36 30 25 24 25 24 18 24 31 31
26 34 39 42 38 34 30 27 25 24 24 21 20 15 15 13 15 14 15 11 12 13 13 13 11 9 11 15 20 28 30 31 36 31 24 20 10 23 21 24 27 29 29
24 38 41 44 40 35 29 25 24 24 22 21 18 15 14 11 11 10 12 11 10 12 10 10 9 9 12 15 20 29 27 35 35 30 26 19 14 22 23 25 29 29 27
27 29 29 40 40 36 32 26 25 25 24 21 19 15 12 12 11 10 9 11 9 10 10 10 11 9 12 18 22 32 30 25 30 24 24 16 16 20 27 28 27 25 25
28 25 23 28 35 35 31 27 26 25 24 22 18 16 14 11 9 11 10 8 8 8 10 11 13 11 12 17 22 34 33 24 25 20 20 13 16 21 24 26 24 23 24
22 20 22 25 33 32 29 25 24 24 24 23 22 19 16 13 11 10 12 10 6 8 7 12 12 12 13 16 19 33 37 31 26 26 24 11 16 20 21 23 23 23 24
17 17 17 25 29 33 32 27 25 23 23 23 23 22 19 15 15 14 12 10 8 8 9 11 13 11 13 14 17 35 40 31 18 21 24 18 14 20 21 22 22 23 22
18 9 18 25 26 27 28 28 26 25 25 28 26 22 20 21 16 15 12 11 9 8 12 14 14 13 15 13 16 34 44 36 27 38 27 20 19 18 20 21 22 21 22
28 24 16 24 24 26 28 27 25 23 26 29 23 21 24 21 20 18 13 12 12 10 11 14 15 15 18 15 17 31 48 40 31 15 28 26 17 14 17 20 22 21 21
33 30 20 25 21 24 27 28 28 27 27 26 20 21 25 30 26 23 16 12 14 12 12 16 18 17 18 18 17 24 38 47 32 26 28 28 22 19 19 21 22 22 21
39 30 27 21 23 30 33 34 30 28 27 29 28 30 29 33 26 24 18 23 21 15 15 18 21 18 21 20 19 13 27 45 35 22 30 21 21 20 23 24 23 22 22
41 36 29 27 28 31 27 29 25 29 30 23 30 34 39 39 49 44 28 30 29 23 17 19 19 18 23 24 23 21 24 41 42 40 35 31 23 23 27 29 26 23 23
35 40 36 28 26 23 21 21 23 31 28 24 34 29 37 42 43 46 43 33 40 29 26 20 20 21 20 20 23 20 30 32 36 41 43 31 32 27 31 33 30 26 24
45 41 34 29 25 19 16 16 22 23 23 28 35 37 35 39 42 50 52 39 33 40 35 26 25 20 16 14 12 16 15 14 27 32 37 30 28 32 39 38 34 30 29
45 41 36 34 29 25 22 17 17 21 27 31 29 32 37 42 37 40 43 47 36 40 35 30 24 23 20 16 11 13 10 11 12 17 25 29 29 33 40 40 39 36 33
37 37 34 33 30 26 24 21 20 25 31 31 29 28 23 30 35 37 43 41 40 33 39 34 25 26 22 19 14 7 14 16 19 20 28 31 27 35 33 39 39 38 36
38 35 32 33 28 25 24 26 28 26 27 31 36 33 28 37 40 39 36 43 40 36 39 41 32 29 26 25 19 10 10 20 18 21 25 28 29 29 30 32 43 44 37
50 43 40 36 31 26 29 24 26 28 29 31 32 34 38 35 41 47 45 42 46 45 45 43 37 34 35 27 18 12 11 18 21 20 32 39 41 38 37 37 45 45 44
50 36 31 31 30 24 24 22 29 32 38 40 38 39 40 45 50 53 48 44 47 49 46 41 48 35 36 35 21 11 9 17 23 24 26 33 42 43 45 40 45 52 50
44 32 19 15 15 14 19 24 27 33 37 37 41 39 42 44 44 48 48 47 48 51 50 47 48 48 40 42 35 19 9 10 12 20 29 27 33 37 42 48 42 48 55
34 14 8 8 12 8 8 18 28 29 29 35 41 39 40 43 42 39 44 47 47 50 51 47 45 51 50 45 38 34 30 20 5 9 19 17 23 33 39 37 37 37 40
14 19 12 13 6 3 13 21 21 28 31 29 32 36 36 32 37 35 34 42 46 50 50 49 46 48 54 49 44 39 32 32 34 25 25 13 18 26 30 28 31 34 36
22 36 26 18 8 10 13 9 16 21 32 33 27 35 27 20 26 31 29 39 44 45 49 51 50 50 52 49 43 49 39 25 28 21 33 19 20 19 21 27 28 30 28
Wind_Direction_500mb
163 158 150 146 136 135 128 127 124 122 118 114 113 108 108 112 116 117 119 120 120 126 133 137 133 129 125 133 142 153 154 134 134 129 127 129 121 109 103 97 106 110 112
163 158 153 147 146 141 133 125 128 124 126 117 116 115 109 107 111 118 114 112 113 114 121 130 135 129 117 123 146 141 138 132 132 134 136 133 126 121 115 108 113 113 118
159 152 153 154 150 146 137 129 130 132 131 128 122 112 113 113 108 120 117 113 110 114 123 129 137 132 118 115 129 132 133 132 132 132 132 132 128 126 122 117 117 120 120
161 155 161 160 153 147 139 132 130 136 137 132 131 123 116 118 115 126 120 118 116 119 125 134 141 147 133 127 129 137 138 137 137 133 116 139 135 135 127 124 128 125 121
164 167 167 162 157 152 145 140 139 141 145 146 144 132 125 126 128 132 133 120 125 124 133 139 154 165 160 147 134 145 145 145 136 129 125 134 130 143 134 131 133 127 122
162 162 167 165 161 154 146 145 146 148 153 154 151 144 138 137 140 138 139 132 139 134 148 148 151 155 171 162 141 148 150 142 133 140 150 159 136 143 137 142 133 129 126
153 155 158 168 162 158 154 152 153 159 161 162 160 161 156 153 155 154 156 143 139 152 159 160 155 149 172 161 155 155 161 150 138 132 166 165 149 154 146 141 139 131 132
166 158 151 167 168 165 161 157 159 164 167 169 171 179 178 173 176 171 170 165 157 163 170 174 170 162 177 182 163 163 173 151 142 162 178 194 170 160 158 148 151 140 141
178 181 163 167 178 175 171 169 172 173 176 180 184 189 197 197 197 188 185 187 184 172 198 180 190 183 189 197 182 174 178 162 147 178 178 195 191 174 166 159 156 149 146
170 169 174 172 180 178 175 177 179 181 184 194 197 198 202 209 209 200 207 207 201 196 215 212 206 211 199 207 195 179 184 184 167 178 194 211 193 187 174 166 162 156 151
167 149 162 175 178 184 179 190 191 186 190 197 205 208 213 218 217 219 211 225 234 206 220 228 222 223 213 211 199 179 186 184 180 181 197 215 197 189 183 173 171 166 161
157 156 159 174 186 192 188 201 208 199 195 203 207 211 218 225 222 229 229 243 233 233 227 233 235 230 225 218 208 191 189 187 200 200 196 205 200 190 196 185 178 177 172
172 172 181 185 198 200 195 203 214 218 208 210 217 220 220 225 213 230 227 250 253 244 235 236 235 236 236 236 203 208 202 198 203 229 204 212 221 218 205 202 188 184 185
184 184 184 212 207 211 208 210 222 223 226 232 227 215 211 225 230 236 252 264 259 233 239 240 234 233 229 227 236 208 206 201 198 225 213 211 213 222 213 213 198 191 197
170 182 189 198 199 218 222 215 222 242 232 239 241 232 233 232 232 243 267 270 254 246 233 255 236 236 231 229 240 241 217 208 208 231 221 211 212 233 219 221 210 202 203
170 176 179 195 202 204 210 206 222 225 219 232 237 248 246 245 247 244 265 276 245 240 244 243 245 237 233 224 235 241 240 228 221 221 225 238 230 230 226 226 219 213 212
171 174 193 209 206 211 220 209 210 226 235 246 234 254 243 237 243 249 257 264 252 244 242 239 229 228 226 217 207 219 224 214 216 216 229 222 222 227 225 228 224 218 216
182 186 187 195 197 208 218 230 233 241 253 257 261 253 260 243 241 253 257 258 254 239 228 234 222 225 217 207 211 210 203 213 231 210 221 223 235 228 223 224 226 224 223
182 190 191 187 203 209 218 233 230 235 236 256 266 257 258 250 251 255 263 252 240 234 227 227 225 215 198 198 202 224 240 239 239 239 224 220 224 233 225 235 233 229 229
185 198 195 191 204 218 231 237 247 252 236 244 259 264 259 254 254 253 261 249 233 233 226 223 223 217 208 209 206 220 260 258 252 233 228 238 236 232 223 232 233 226 222
189 192 199 203 208 220 238 249 255 256 255 258 258 246 257 253 248 256 253 249 236 233 226 227 226 221 211 214 212 216 235 251 252 234 245 241 246 238 240 240 230 230 229
182 195 207 212 218 228 248 262 261 264 264 265 263 251 259 265 259 257 255 246 235 231 225 219 219 220 210 213 213 197 231 253 257 251 241 240 244 249 247 243 234 231 229
184 195 207 218 228 244 258 275 275 277 280 280 279 266 266 264 262 252 252 244 234 229 227 226 222 220 218 217 216 214 185 228 250 253 253 248 249 247 251 245 241 240 244
180 176 195 223 214 252 287 299 300 300 303 298 287 283 274 260 251 251 250 238 230 227 224 223 224 223 224 223 221 222 223 233 245 280 253 272 253 247 250 241 247 239 242
144 178 265 213 209 271 323 313 310 308 308 307 305 295 292 270 237 234 242 235 231 223 225 225 227 224 224 228 227 222 221 241 248 245 266 268 274 250 245 232 240 234 231
138 160 191 175 179 334 317 326 314 338 331 317 305 307 273 268 231 232 240 234 229 226 226 227 228 230 228 230 230 236 227 226 243 225 246 261 267 259 239 220 227 224 222
Wind_Speed_850mb
38 39 42 43 42 40 37 36 35 33 30 30 29 28 28 28 26 26 26 23 22 24 23 21 22 19 14 14 13 14 15 18 25 28 29 30 36 34 33 28 29 31 34
40 40 42 44 44 39 35 32 32 30 29 27 25 25 26 23 23 24 24 22 22 23 22 21 21 22 16 13 14 20 20 28 31 32 30 34 34 36 33 25 25 31 34
41 36 38 41 43 38 33 29 28 28 26 26 23 20 20 21 20 20 22 20 19 18 19 19 17 17 15 17 20 22 27 32 33 29 27 29 30 26 28 20 22 30 34
34 34 38 41 39 36 30 26 24 25 24 22 20 17 16 17 18 18 17 16 16 16 16 15 14 10 13 15 22 25 31 33 33 36 30 25 24 25 24 18 24 31 31
26 34 39 42 38 34 30 27 25 24 24 21 20 15 15 13 15 14 15 11 12 13 13 13 11 9 11 15 20 28 30 31 36 31 24 20 10 23 21 24 27 29 29
24 38 41 44 40 35 29 25 24 24 22 21 18 15 14 11 11 10 12 11 10 12 10 10 9 9 12 15 20 29 27 35 35 30 26 19 14 22 23 25 29 29 27
27 29 29 40 40 36 32 26 25 25 24 21 19 15 12 12 11 10 9 11 9 10 10 10 11 9 12 18 22 32 30 25 30 24 24 16 16 20 27 28 27 25 25
28 25 23 28 35 35 31 27 26 25 24 22 18 16 14 11 9 11 10 8 8 8 10 11 13 11 12 17 22 34 33 24 25 20 20 13 16 21 24 26 24 23 24
22 20 22 25 33 32 29 25 24 24 24 23 22 19 16 13 11 10 12 10 6 8 7 12 12 12 13 16 19 33 37 31 26 26 24 11 16 20 21 23 23 23 24
17 17 17 25 29 33 32 27 25 23 23 23 23 22 19 15 15 14 12 10 8 8 9 11 13 11 13 14 17 35 40 31 18 21 24 18 14 20 21 22 22 23 22
18 9 18 25 26 27 28 28 26 25 25 28 26 22 20 21 16 15 12 11 9 8 12 14 14 13 15 13 16 34 44 36 27 38 27 20 19 18 20 21 22 21 22
28 24 16 24 24 26 28 27 25 23 26 29 23 21 24 21 20 18 13 12 12 10 11 14 15 15 18 15 17 31 48 40 31 15 28 26 17 14 17 20 22 21 21
33 30 20 25 21 24 27 28 28 27 27 26 20 21 25 30 26 23 16 12 14 12 12 16 18 17 18 18 17 24 38 47 32 26 28 28 22 19 19 21 22 22 21
39 30 27 21 23 30 33 34 30 28 27 29 28 30 29 33 26 24 18 23 21 15 15 18 21 18 21 20 19 13 27 45 35 22 30 21 21 20 23 24 23 22 22
41 36 29 27 28 31 27 29 25 29 30 23 30 34 39 39 49 44 28 30 29 23 17 19 19 18 23 24 23 21 24 41 42 40 35 31 23 23 27 29 26 23 23
35 40 36 28 26 23 21 21 23 31 28 24 34 29 37 42 43 46 43 33 40 29 26 20 20 21 20 20 23 20 30 32 36 41 43 31 32 27 31 33 30 26 24
45 41 34 29 25 19 16 16 22 23 23 28 35 37 35 39 42 50 52 39 33 40 35 26 25 20 16 14 12 16 15 14 27 32 37 30 28 32 39 38 34 30 29
45 41 36 34 29 25 22 17 17 21 27 31 29 32 37 42 37 40 43 47 36 40 35 30 24 23 20 16 11 13 10 11 12 17 25 29 29 33 40 40 39 36 33
37 37 34 33 30 26 24 21 20 25 31 31 29 28 23 30 35 37 43 41 40 33 39 34 25 26 22 19 14 7 14 16 19 20 28 31 27 35 33 39 39 38 36
38 35 32 33 28 25 24 26 28 26 27 31 36 33 28 37 40 39 36 43 40 36 39 41 32 29 26 25 19 10 10 20 18 21 25 28 29 29 30 32 43 44 37
50 43 40 36 31 26 29 24 26 28 29 31 32 34 38 35 41 47 45 42 46 45 45 43 37 34 35 27 18 12 11 18 21 20 32 39 41 38 37 37 45 45 44
50 36 31 31 30 24 24 22 29 32 38 40 38 39 40 45 50 53 48 44 47 49 46 41 48 35 36 35 21 11 9 17 23 24 26 33 42 43 45 40 45 52 50
44 32 19 15 15 14 19 24 27 33 37 37 41 39 42 44 44 48 48 47 48 51 50 47 48 48 40 42 35 19 9 10 12 20 29 27 33 37 42 48 42 48 55
34 14 8 8 12 8 8 18 28 29 29 35 41 39 40 43 42 39 44 47 47 50 51 47 45 51 50 45 38 34 30 20 5 9 19 17 23 33 39 37 37 37 40
14 19 12 13 6 3 13 21 21 28 31 29 32 36 36 32 37 35 34 42 46 50 50 49 46 48 54 49 44 39 32 32 34 25 25 13 18 26 30 28 31 34 36
22 36 26 18 8 10 13 9 16 21 32 33 27 35 27 20 26 31 29 39 44 45 49 51 50 50 52 49 43 49 39 25 28 21 33 19 20 19 21 27 28 30 28
Wind_Direction_850mb
163 158 150 146 136 135 128 127 124 122 118 114 113 108 108 112 116 117 119 120 120 126 133 137 133 129 125 133 142 153 154 134 134 129 127 129 121 109 103 97 106 110 112
163 158 153 147 146 141 133 125 128 124 126 117 116 115 109 107 111 118 114 112 113 114 121 130 135 129 117 123 146 141 138 132 132 134 136 133 126 121 115 108 113 113 118
159 152 153 154 150 146 137 129 130 132 131 128 122 112 113 113 108 120 117 113 110 114 123 129 137 132 118 115 129 132 133 132 132 132 132 132 128 126 122 117 117 120 120
161 155 161 160 153 147 139 132 130 136 137 132 131 123 116 118 115 126 120 118 116 119 125 134 141 147 133 127 129 137 138 137 137 133 116 139 135 135 127 124 128 125 121
164 167 167 162 157 152 145 140 139 141 145 146 144 132 125 126 128 132 133 120 125 124 133 139 154 165 160 147 134 145 145 145 136 129 125 134 130 143 134 131 133 127 122
162 162 167 165 161 154 146 145 146 148 153 154 151 144 138 137 140 138 139 132 139 134 148 148 151 155 171 162 141 148 150 142 133 140 150 159 136 143 137 142 133 129 126
153 155 158 168 162 158 154 152 153 159 161 162 160 161 156 153 155 154 156 143 139 152 159 160 155 149 172 161 155 155 161 150 138 132 166 165 149 154 146 141 139 131 132
166 158 151 167 168 165 161 157 159 164 167 169 171 179 178 173 176 171 170 165 157 163 170 174 170 162 177 182 163 163 173 151 142 162 178 194 170 160 158 148 151 140 141
178 181 163 167 178 175 171 169 172 173 176 180 184 189 197 197 197 188 185 187 184 172 198 180 190 183 189 197 182 174 178 162 147 178 178 195 191 174 166 159 156 149 146
170 169 174 172 180 178 175 177 179 181 184 194 197 198 202 209 209 200 207 207 201 196 215 212 206 211 199 207 195 179 184 184 167 178 194 211 193 187 174 166 162 156 151
167 149 162 175 178 184 179 190 191 186 190 197 205 208 213 218 217 219 211 225 234 206 220 228 222 223 213 211 199 179 186 184 180 181 197 215 197 189 183 173 171 166 161
157 156 159 174 186 192 188 201 208 199 195 203 207 211 218 225 222 229 229 243 233 233 227 233 235 230 225 218 208 191 189 187 200 200 196 205 200 190 196 185 178 177 172
172 172 181 185 198 200 195 203 214 218 208 210 217 220 220 225 213 230 227 250 253 244 235 236 235 236 236 236 203 208 202 198 203 229 204 212 221 218 205 202 188 184 185
184 184 184 212 207 211 208 210 222 223 226 232 227 215 211 225 230 236 252 264 259 233 239 240 234 233 229 227 236 208 206 201 198 225 213 211 213 222 213 213 198 191 197
170 182 189 198 199 218 222 215 222 242 232 239 241 232 233 232 232 243 267 270 254 246 233 255 236 236 231 229 240 241 217 208 208 231 221 211 212 233 219 221 210 202 203
170 176 179 195 202 204 210 206 222 225 219 232 237 248 246 245 247 244 265 276 245 240 244 243 245 237 233 224 235 241 240 228 221 221 225 238 230 230 226 226 219 213 212
171 174 193 209 206 211 220 209 210 226 235 246 234 254 243 237 243 249 257 264 252 244 242 239 229 228 226 217 207 219 224 214 216 216 229 222 222 227 225 228 224 218 216
182 186 187 195 197 208 218 230 233 241 253 257 261 253 260 243 241 253 257 258 254 239 228 234 222 225 217 207 211 210 203 213 231 210 221 223 235 228 223 224 226 224 223
182 190 191 187 203 209 218 233 230 235 236 256 266 257 258 250 251 255 263 252 240 234 227 227 225 215 198 198 202 224 240 239 239 239 224 220 224 233 225 235 233 229 229
185 198 195 191 204 218 231 237 247 252 236 244 259 264 259 254 254 253 261 249 233 233 226 223 223 217 208 209 206 220 260 258 252 233 228 238 236 232 223 232 233 226 222
189 192 199 203 208 220 238 249 255 256 255 258 258 246 257 253 248 256 253 249 236 233 226 227 226 221 211 214 212 216 235 251 252 234 245 241 246 238 240 240 230 230 229
182 195 207 212 218 228 248 262 261 264 264 265 263 251 259 265 259 257 255 246 235 231 225 219 219 220 210 213 213 197 231 253 257 251 241 240 244 249 247 243 234 231 229
184 195 207 218 228 244 258 275 275 277 280 280 279 266 266 264 262 252 252 244 234 229 227 226 222 220 218 217 216 214 185 228 250 253 253 248 249 247 251 245 241 240 244
180 176 195 223 214 252 287 299 300 300 303 298 287 283 274 260 251 251 250 238 230 227 224 223 224 223 224 223 221 222 223 233 245 280 253 272 253 247 250 241 247 239 242
144 178 265 213 209 271 323 313 310 308 308 307 305 295 292 270 237 234 242 235 231 223 225 225 227 224 224 228 227 222 221 241 248 245 266 268 274 250 245 232 240 234 231
138 160 191 175 179 334 317 326 314 338 331 317 305 307 273 268 231 232 240 234 229 226 226 227 228 230 228 230 230 236 227 226 243 225 246 261 267 259 239 220 227 224 222